Time,TemperatureF,DewpointF,PressureIn,WindDirection,WindDirectionDegrees,WindSpeedMPH,WindSpeedGustMPH,Humidity,HourlyPrecipIn,Conditions,Clouds,dailyrainin,SoftwareType,DateUTC
2013-10-18 00:00:00,51.3,45.6,29.99,WSW,247,0.4,-999.0,81,0.00,,,0.00,,2013-10-18 07:00:00,
2013-10-18 00:05:00,51.1,45.5,29.99,WSW,247,0.0,-999.0,81,0.00,,,0.00,,2013-10-18 07:05:00,
2013-10-18 00:10:00,51.1,45.5,29.99,NNW,337,0.0,-999.0,81,0.00,,,0.00,,2013-10-18 07:10:00,
2013-10-18 00:15:00,50.9,45.6,30.00,NNW,337,0.0,-999.0,82,0.00,,,0.00,,2013-10-18 07:15:00,
2013-10-18 00:21:00,50.9,45.3,30.00,NNW,337,0.4,-999.0,81,0.00,,,0.00,,2013-10-18 07:21:00,
2013-10-18 00:26:00,50.8,44.8,29.99,NNW,337,0.0,-999.0,80,0.00,,,0.00,,2013-10-18 07:26:00,
2013-10-18 00:31:00,50.6,44.6,30.00,NNW,337,0.0,-999.0,80,0.00,,,0.00,,2013-10-18 07:31:00,
2013-10-18 00:36:00,50.4,45.1,30.00,NNW,337,0.0,-999.0,82,0.00,,,0.00,,2013-10-18 07:36:00,
2013-10-18 00:41:00,50.0,44.7,29.99,North,0,0.4,-999.0,82,0.00,,,0.00,,2013-10-18 07:41:00,
2013-10-18 00:46:00,49.9,44.6,30.00,North,0,0.0,-999.0,82,0.00,,,0.00,,2013-10-18 07:46:00,
2013-10-18 00:51:00,49.7,44.6,30.00,North,0,0.0,-999.0,83,0.00,,,0.00,,2013-10-18 07:51:00,
2013-10-18 00:56:00,49.3,44.0,30.00,North,0,0.0,-999.0,82,0.00,,,0.00,,2013-10-18 07:56:00,
2013-10-18 01:01:00,49.3,44.0,30.00,North,0,0.0,-999.0,82,0.00,,,0.00,,2013-10-18 08:01:00,
2013-10-18 01:06:00,49.3,44.0,30.00,NNW,337,0.0,-999.0,82,0.00,,,0.00,,2013-10-18 08:06:00,
2013-10-18 01:11:00,49.3,44.7,30.00,SW,225,1.3,-999.0,84,0.00,,,0.00,,2013-10-18 08:11:00,
2013-10-18 01:16:00,49.3,44.7,30.00,NW,315,0.0,-999.0,84,0.00,,,0.00,,2013-10-18 08:16:00,
2013-10-18 01:21:00,49.3,44.7,30.00,NNW,337,0.4,-999.0,84,0.00,,,0.00,,2013-10-18 08:21:00,
2013-10-18 01:26:00,49.3,44.9,30.00,WNW,292,0.0,-999.0,85,0.00,,,0.00,,2013-10-18 08:26:00,
2013-10-18 01:31:00,49.3,44.9,30.00,NNW,337,0.0,-999.0,85,0.00,,,0.00,,2013-10-18 08:31:00,
2013-10-18 01:36:00,49.3,44.9,30.00,NNW,337,0.2,-999.0,85,0.00,,,0.00,,2013-10-18 08:36:00,
2013-10-18 01:41:00,49.1,45.1,30.00,North,0,0.0,-999.0,86,0.00,,,0.00,,2013-10-18 08:41:00,
2013-10-18 01:46:00,49.1,45.1,30.00,West,270,0.4,-999.0,86,0.00,,,0.00,,2013-10-18 08:46:00,
2013-10-18 01:51:00,49.1,45.1,30.00,WSW,247,0.0,-999.0,86,0.00,,,0.00,,2013-10-18 08:51:00,
2013-10-18 01:56:00,49.1,45.1,30.00,NNW,337,0.0,-999.0,86,0.00,,,0.00,,2013-10-18 08:56:00,
2013-10-18 02:01:00,49.0,44.9,30.01,WSW,247,0.7,-999.0,86,0.00,,,0.00,,2013-10-18 09:01:00,
2013-10-18 02:06:00,49.1,45.1,30.00,NNW,337,0.0,-999.0,86,0.00,,,0.00,,2013-10-18 09:06:00,
2013-10-18 02:12:00,49.1,45.1,30.01,WSW,247,0.2,-999.0,86,0.00,,,0.00,,2013-10-18 09:12:00,
2013-10-18 02:17:00,49.1,45.1,30.01,WSW,247,0.4,-999.0,86,0.00,,,0.00,,2013-10-18 09:17:00,
2013-10-18 02:22:00,49.0,45.3,30.01,NNW,337,0.0,-999.0,87,0.00,,,0.00,,2013-10-18 09:22:00,
2013-10-18 02:27:00,49.0,45.3,30.01,NNW,337,0.2,-999.0,87,0.00,,,0.00,,2013-10-18 09:27:00,
2013-10-18 02:32:00,49.0,45.3,30.01,NNW,337,0.4,-999.0,87,0.00,,,0.00,,2013-10-18 09:32:00,
2013-10-18 02:37:00,48.8,44.7,30.01,West,270,0.4,-999.0,86,0.00,,,0.00,,2013-10-18 09:37:00,
2013-10-18 02:42:00,48.8,44.7,30.01,West,270,0.0,-999.0,86,0.00,,,0.00,,2013-10-18 09:42:00,
2013-10-18 02:47:00,48.6,44.6,30.01,WSW,247,0.0,-999.0,86,0.00,,,0.00,,2013-10-18 09:47:00,
2013-10-18 02:52:00,48.8,44.7,30.01,WSW,247,0.2,-999.0,86,0.00,,,0.00,,2013-10-18 09:52:00,
2013-10-18 02:57:00,48.6,44.9,30.01,NNE,22,0.0,-999.0,87,0.00,,,0.00,,2013-10-18 09:57:00,
2013-10-18 03:02:00,48.6,44.9,30.01,North,0,0.0,-999.0,87,0.00,,,0.00,,2013-10-18 10:02:00,
2013-10-18 03:07:00,48.6,44.6,30.01,WSW,247,0.0,-999.0,86,0.00,,,0.00,,2013-10-18 10:07:00,
2013-10-18 03:12:00,48.6,44.3,30.01,NNW,337,0.0,-999.0,85,0.00,,,0.00,,2013-10-18 10:12:00,
2013-10-18 03:17:00,48.6,44.3,30.01,NNW,337,0.0,-999.0,85,0.00,,,0.00,,2013-10-18 10:17:00,
2013-10-18 03:22:00,48.6,44.3,30.01,North,0,0.0,-999.0,85,0.00,,,0.00,,2013-10-18 10:22:00,
2013-10-18 03:27:00,48.6,44.3,30.01,West,270,0.0,-999.0,85,0.00,,,0.00,,2013-10-18 10:27:00,
2013-10-18 03:32:00,48.6,44.6,30.01,NNW,337,0.0,-999.0,86,0.00,,,0.00,,2013-10-18 10:32:00,
2013-10-18 03:37:00,48.6,44.9,30.01,NNW,337,0.0,-999.0,87,0.00,,,0.00,,2013-10-18 10:37:00,
2013-10-18 03:42:00,48.6,44.9,30.01,North,0,0.0,-999.0,87,0.00,,,0.00,,2013-10-18 10:42:00,
2013-10-18 03:47:00,48.4,44.7,30.01,NNW,337,0.0,-999.0,87,0.00,,,0.00,,2013-10-18 10:47:00,
2013-10-18 03:52:00,48.4,44.7,30.00,NNW,337,0.2,-999.0,87,0.00,,,0.00,,2013-10-18 10:52:00,
2013-10-18 03:57:00,48.2,44.6,30.00,North,0,0.2,-999.0,87,0.00,,,0.00,,2013-10-18 10:57:00,
2013-10-18 04:02:00,48.4,44.7,30.00,WSW,247,0.2,-999.0,87,0.00,,,0.00,,2013-10-18 11:02:00,
2013-10-18 04:07:00,48.2,44.9,30.00,West,270,0.0,-999.0,88,0.00,,,0.00,,2013-10-18 11:07:00,
2013-10-18 04:12:00,47.9,44.6,30.00,NNW,337,0.0,-999.0,88,0.00,,,0.00,,2013-10-18 11:12:00,
2013-10-18 04:17:00,47.9,44.6,30.00,WSW,247,0.4,-999.0,88,0.00,,,0.00,,2013-10-18 11:17:00,
2013-10-18 04:22:00,47.9,44.6,30.00,WSW,247,0.7,-999.0,88,0.00,,,0.00,,2013-10-18 11:22:00,
2013-10-18 04:27:00,47.7,44.4,30.01,NNW,337,0.0,-999.0,88,0.00,,,0.00,,2013-10-18 11:27:00,
2013-10-18 04:32:00,47.5,44.2,30.01,West,270,0.9,-999.0,88,0.00,,,0.00,,2013-10-18 11:32:00,
2013-10-18 04:37:00,47.5,44.2,30.01,NNW,337,0.0,-999.0,88,0.00,,,0.00,,2013-10-18 11:37:00,
2013-10-18 04:42:00,47.5,44.2,30.01,WSW,247,0.2,-999.0,88,0.00,,,0.00,,2013-10-18 11:42:00,
2013-10-18 04:47:00,47.5,44.2,30.01,NW,315,0.0,-999.0,88,0.00,,,0.00,,2013-10-18 11:47:00,
2013-10-18 04:52:00,47.5,44.2,30.01,NNW,337,0.9,-999.0,88,0.00,,,0.00,,2013-10-18 11:52:00,
2013-10-18 04:57:00,47.3,44.4,30.01,NNW,337,0.0,-999.0,89,0.00,,,0.00,,2013-10-18 11:57:00,
2013-10-18 05:02:00,47.3,44.4,30.01,WSW,247,0.2,-999.0,89,0.00,,,0.00,,2013-10-18 12:02:00,
2013-10-18 05:07:00,47.5,44.2,30.01,WSW,247,0.0,-999.0,88,0.00,,,0.00,,2013-10-18 12:07:00,
2013-10-18 05:13:00,47.5,44.2,30.01,NW,315,0.9,-999.0,88,0.00,,,0.00,,2013-10-18 12:13:00,
2013-10-18 05:18:00,47.3,44.4,30.01,North,0,0.4,-999.0,89,0.00,,,0.00,,2013-10-18 12:18:00,
2013-10-18 05:23:00,47.3,44.0,30.01,North,0,0.0,-999.0,88,0.00,,,0.00,,2013-10-18 12:23:00,
2013-10-18 05:28:00,47.5,44.2,30.01,NNW,337,0.0,-999.0,88,0.00,,,0.00,,2013-10-18 12:28:00,
2013-10-18 05:33:00,47.5,44.2,30.01,West,270,0.0,-999.0,88,0.00,,,0.00,,2013-10-18 12:33:00,
2013-10-18 05:38:00,47.3,44.4,30.01,NNW,337,0.0,-999.0,89,0.00,,,0.00,,2013-10-18 12:38:00,
2013-10-18 05:43:00,47.2,43.8,30.01,West,270,1.1,-999.0,88,0.00,,,0.00,,2013-10-18 12:43:00,
2013-10-18 05:48:00,47.3,44.0,30.01,WSW,247,0.4,-999.0,88,0.00,,,0.00,,2013-10-18 12:48:00,
2013-10-18 05:53:00,47.3,44.0,30.01,West,270,0.0,-999.0,88,0.00,,,0.00,,2013-10-18 12:53:00,
2013-10-18 05:58:00,47.2,43.8,30.01,West,270,1.1,-999.0,88,0.00,,,0.00,,2013-10-18 12:58:00,
2013-10-18 06:03:00,47.2,43.8,30.01,WSW,247,0.0,-999.0,88,0.00,,,0.00,,2013-10-18 13:03:00,
2013-10-18 06:08:00,47.2,43.8,30.01,West,270,0.0,-999.0,88,0.00,,,0.00,,2013-10-18 13:08:00,
2013-10-18 06:13:00,47.2,43.8,30.01,North,0,0.0,-999.0,88,0.00,,,0.00,,2013-10-18 13:13:00,
2013-10-18 06:18:00,47.2,43.6,30.01,WSW,247,0.0,-999.0,87,0.00,,,0.00,,2013-10-18 13:18:00,
2013-10-18 06:23:00,47.3,43.7,30.01,WSW,247,1.1,-999.0,87,0.00,,,0.00,,2013-10-18 13:23:00,
2013-10-18 06:28:00,47.2,43.6,30.01,WSW,247,1.1,-999.0,87,0.00,,,0.00,,2013-10-18 13:28:00,
2013-10-18 06:33:00,47.3,43.7,30.01,West,270,0.0,-999.0,87,0.00,,,0.00,,2013-10-18 13:33:00,
2013-10-18 06:38:00,47.5,43.6,30.01,WSW,247,0.0,-999.0,86,0.00,,,0.00,,2013-10-18 13:38:00,
2013-10-18 06:43:00,47.5,44.2,30.02,NNW,337,1.1,-999.0,88,0.00,,,0.00,,2013-10-18 13:43:00,
2013-10-18 06:48:00,47.3,43.7,30.02,North,0,0.4,-999.0,87,0.00,,,0.00,,2013-10-18 13:48:00,
2013-10-18 06:53:00,47.2,43.8,30.02,North,0,0.4,-999.0,88,0.00,,,0.00,,2013-10-18 13:53:00,
2013-10-18 06:58:00,47.2,43.6,30.02,NNW,337,0.0,-999.0,87,0.00,,,0.00,,2013-10-18 13:58:00,
2013-10-18 07:03:00,47.2,43.8,30.02,NNW,337,0.4,-999.0,88,0.00,,,0.00,,2013-10-18 14:03:00,
2013-10-18 07:08:00,46.8,43.5,30.03,NW,315,0.0,-999.0,88,0.00,,,0.00,,2013-10-18 14:08:00,
2013-10-18 07:13:00,46.8,43.2,30.03,West,270,0.0,-999.0,87,0.00,,,0.00,,2013-10-18 14:13:00,
2013-10-18 07:18:00,46.8,43.8,30.03,NNW,337,0.7,-999.0,89,0.00,,,0.00,,2013-10-18 14:18:00,
2013-10-18 07:23:00,46.6,43.3,30.03,North,0,0.0,-999.0,88,0.00,,,0.00,,2013-10-18 14:23:00,
2013-10-18 07:28:00,46.8,43.5,30.03,North,0,0.0,-999.0,88,0.00,,,0.00,,2013-10-18 14:28:00,
2013-10-18 07:33:00,46.8,43.8,30.03,NNW,337,0.0,-999.0,89,0.00,,,0.00,,2013-10-18 14:33:00,
2013-10-18 07:38:00,46.6,43.3,30.04,WSW,247,0.0,-999.0,88,0.00,,,0.00,,2013-10-18 14:38:00,
2013-10-18 07:43:00,46.6,43.3,30.04,West,270,0.0,-999.0,88,0.00,,,0.00,,2013-10-18 14:43:00,
2013-10-18 07:48:00,46.4,43.1,30.04,WSW,247,0.0,-999.0,88,0.00,,,0.00,,2013-10-18 14:48:00,
2013-10-18 07:53:00,46.6,43.3,30.04,West,270,0.0,-999.0,88,0.00,,,0.00,,2013-10-18 14:53:00,
2013-10-18 07:58:00,46.6,43.3,30.04,North,0,0.2,-999.0,88,0.00,,,0.00,,2013-10-18 14:58:00,
2013-10-18 08:03:00,46.6,43.3,30.04,SW,225,0.7,-999.0,88,0.00,,,0.00,,2013-10-18 15:03:00,
2013-10-18 08:08:00,46.8,43.5,30.04,West,270,0.0,-999.0,88,0.00,,,0.00,,2013-10-18 15:08:00,
2013-10-18 08:13:00,47.2,43.6,30.04,NNE,22,0.0,-999.0,87,0.00,,,0.00,,2013-10-18 15:13:00,
2013-10-18 08:18:00,47.2,43.6,30.04,NE,45,0.2,-999.0,87,0.00,,,0.00,,2013-10-18 15:18:00,
2013-10-18 08:23:00,47.3,43.7,30.04,NNE,22,1.1,-999.0,87,0.00,,,0.00,,2013-10-18 15:23:00,
2013-10-18 08:28:00,47.3,43.7,30.05,North,0,0.0,-999.0,87,0.00,,,0.00,,2013-10-18 15:28:00,
2013-10-18 08:34:00,47.3,43.7,30.05,NNW,337,0.0,-999.0,87,0.00,,,0.00,,2013-10-18 15:34:00,
2013-10-18 08:39:00,47.5,43.6,30.05,North,0,0.0,-999.0,86,0.00,,,0.00,,2013-10-18 15:39:00,
2013-10-18 08:44:00,47.5,43.6,30.05,North,0,0.0,-999.0,86,0.00,,,0.00,,2013-10-18 15:44:00,
2013-10-18 08:49:00,47.7,44.4,30.06,North,0,0.0,-999.0,88,0.00,,,0.00,,2013-10-18 15:49:00,
2013-10-18 08:54:00,47.7,44.0,30.06,North,0,0.0,-999.0,87,0.00,,,0.00,,2013-10-18 15:54:00,
2013-10-18 08:59:00,47.9,44.2,30.06,WSW,247,0.0,-999.0,87,0.00,,,0.00,,2013-10-18 15:59:00,
2013-10-18 09:04:00,48.2,44.6,30.06,North,0,0.4,-999.0,87,0.00,,,0.00,,2013-10-18 16:04:00,
2013-10-18 09:09:00,48.2,44.3,30.06,SW,225,0.4,-999.0,86,0.00,,,0.00,,2013-10-18 16:09:00,
2013-10-18 09:14:00,48.4,44.7,30.06,North,0,1.1,-999.0,87,0.00,,,0.00,,2013-10-18 16:14:00,
2013-10-18 09:19:00,48.6,44.9,30.06,NW,315,0.4,-999.0,87,0.00,,,0.00,,2013-10-18 16:19:00,
2013-10-18 09:24:00,49.0,45.3,30.06,North,0,0.0,-999.0,87,0.00,,,0.00,,2013-10-18 16:24:00,
2013-10-18 09:29:00,49.3,45.3,30.06,SW,225,1.1,-999.0,86,0.00,,,0.00,,2013-10-18 16:29:00,
2013-10-18 09:34:00,49.9,45.8,30.06,SW,225,1.1,-999.0,86,0.00,,,0.00,,2013-10-18 16:34:00,
2013-10-18 09:39:00,50.4,46.3,30.06,North,0,0.0,-999.0,86,0.00,,,0.00,,2013-10-18 16:39:00,
2013-10-18 09:44:00,51.1,46.7,30.06,West,270,1.1,-999.0,85,0.00,,,0.00,,2013-10-18 16:44:00,
2013-10-18 09:49:00,51.8,47.2,30.06,West,270,1.6,-999.0,84,0.00,,,0.00,,2013-10-18 16:49:00,
2013-10-18 09:54:00,52.6,47.5,30.06,North,0,1.1,-999.0,83,0.00,,,0.00,,2013-10-18 16:54:00,
2013-10-18 09:59:00,53.1,47.4,30.06,West,270,0.4,-999.0,81,0.00,,,0.00,,2013-10-18 16:59:00,
2013-10-18 10:04:00,53.5,47.5,30.06,NNW,337,0.0,-999.0,80,0.00,,,0.00,,2013-10-18 17:04:00,
2013-10-18 10:09:00,54.4,47.6,30.06,NNW,337,0.9,-999.0,78,0.00,,,0.00,,2013-10-18 17:09:00,
2013-10-18 10:14:00,54.9,48.5,30.06,WSW,247,0.9,-999.0,79,0.00,,,0.00,,2013-10-18 17:14:00,
2013-10-18 10:19:00,55.6,48.8,30.06,NNE,22,0.2,-999.0,78,0.00,,,0.00,,2013-10-18 17:19:00,
2013-10-18 10:24:00,56.3,49.1,30.06,North,0,0.2,-999.0,77,0.00,,,0.00,,2013-10-18 17:24:00,
2013-10-18 10:29:00,57.2,49.3,30.06,SW,225,1.1,-999.0,75,0.00,,,0.00,,2013-10-18 17:29:00,
2013-10-18 10:34:00,58.0,49.3,30.06,NNW,337,0.4,-999.0,73,0.00,,,0.00,,2013-10-18 17:34:00,
2013-10-18 10:36:00,58.1,49.5,30.06,North,0,0.0,-999.0,73,0.00,,,0.00,,2013-10-18 17:36:00,
2013-10-18 10:41:00,59.4,50.0,30.06,NW,315,0.0,-999.0,71,0.00,,,0.00,,2013-10-18 17:41:00,
2013-10-18 10:46:00,60.3,49.8,30.06,NNW,337,0.4,-999.0,68,0.00,,,0.00,,2013-10-18 17:46:00,
2013-10-18 10:51:00,60.7,48.9,30.06,NNW,337,1.6,-999.0,65,0.00,,,0.00,,2013-10-18 17:51:00,
2013-10-18 10:56:00,61.2,50.2,30.06,NNW,337,0.0,-999.0,67,0.00,,,0.00,,2013-10-18 17:56:00,
2013-10-18 11:01:00,61.9,48.8,30.05,NNW,337,0.2,-999.0,62,0.00,,,0.00,,2013-10-18 18:01:00,
2013-10-18 11:06:00,62.6,49.1,30.05,NNW,337,0.0,-999.0,61,0.00,,,0.00,,2013-10-18 18:06:00,
2013-10-18 11:11:00,63.9,49.8,30.05,WSW,247,1.1,-999.0,60,0.00,,,0.00,,2013-10-18 18:11:00,
2013-10-18 11:16:00,65.0,49.3,30.05,WSW,247,1.8,-999.0,57,0.00,,,0.00,,2013-10-18 18:16:00,
2013-10-18 11:21:00,65.9,49.7,30.05,West,270,0.0,-999.0,56,0.00,,,0.00,,2013-10-18 18:21:00,
2013-10-18 11:26:00,66.6,50.0,30.05,ENE,67,0.0,-999.0,55,0.00,,,0.00,,2013-10-18 18:26:00,
2013-10-18 11:31:00,68.0,50.2,30.05,South,180,1.3,-999.0,53,0.00,,,0.00,,2013-10-18 18:31:00,
2013-10-18 11:36:00,69.1,49.1,30.05,WNW,292,1.3,-999.0,49,0.00,,,0.00,,2013-10-18 18:36:00,
2013-10-18 11:41:00,69.3,50.0,30.05,West,270,1.1,-999.0,50,0.00,,,0.00,,2013-10-18 18:41:00,
2013-10-18 11:46:00,70.2,51.2,30.05,SSE,157,1.1,-999.0,51,0.00,,,0.00,,2013-10-18 18:46:00,
2013-10-18 11:51:00,71.6,50.2,30.04,SW,225,1.1,-999.0,47,0.00,,,0.00,,2013-10-18 18:51:00,
2013-10-18 11:56:00,72.4,50.3,30.04,SW,225,3.4,-999.0,46,0.00,,,0.00,,2013-10-18 18:56:00,
2013-10-18 12:01:00,72.9,49.6,30.04,SW,225,0.2,-999.0,44,0.00,,,0.00,,2013-10-18 19:01:00,
2013-10-18 12:06:00,72.9,50.8,30.04,SW,225,2.2,-999.0,46,0.00,,,0.00,,2013-10-18 19:06:00,
2013-10-18 12:11:00,73.6,50.9,30.04,ENE,67,0.0,-999.0,45,0.00,,,0.00,,2013-10-18 19:11:00,
2013-10-18 12:16:00,74.3,49.7,30.04,North,0,1.1,-999.0,42,0.00,,,0.00,,2013-10-18 19:16:00,
2013-10-18 12:21:00,74.5,49.3,30.04,NW,315,0.2,-999.0,41,0.00,,,0.00,,2013-10-18 19:21:00,
2013-10-18 12:26:00,75.2,51.8,30.04,South,180,1.3,-999.0,44,0.00,,,0.00,,2013-10-18 19:26:00,
2013-10-18 12:31:00,76.0,51.2,30.04,SW,225,1.1,-999.0,42,0.00,,,0.00,,2013-10-18 19:31:00,
2013-10-18 12:36:00,76.7,51.8,30.04,WSW,247,2.5,-999.0,42,0.00,,,0.00,,2013-10-18 19:36:00,
2013-10-18 12:41:00,77.2,51.8,30.03,SE,135,1.1,-999.0,41,0.00,,,0.00,,2013-10-18 19:41:00,
2013-10-18 12:46:00,77.6,51.4,30.03,NNW,337,1.1,-999.0,40,0.00,,,0.00,,2013-10-18 19:46:00,
2013-10-18 12:51:00,78.5,52.8,30.03,SSW,202,1.1,-999.0,41,0.00,,,0.00,,2013-10-18 19:51:00,
2013-10-18 12:56:00,79.4,53.0,30.03,SSW,202,0.9,-999.0,40,0.00,,,0.00,,2013-10-18 19:56:00,
2013-10-18 13:01:00,79.2,49.1,30.02,North,0,0.0,-999.0,35,0.00,,,0.00,,2013-10-18 20:01:00,
2013-10-18 13:06:00,77.9,51.0,30.02,South,180,2.0,-999.0,39,0.00,,,0.00,,2013-10-18 20:06:00,
2013-10-18 13:11:00,78.8,51.8,30.02,SSE,157,1.1,-999.0,39,0.00,,,0.00,,2013-10-18 20:11:00,
2013-10-18 13:16:00,79.6,50.9,30.02,West,270,1.6,-999.0,37,0.00,,,0.00,,2013-10-18 20:16:00,
2013-10-18 13:21:00,78.5,48.4,30.02,West,270,2.7,-999.0,35,0.00,,,0.00,,2013-10-18 20:21:00,
2013-10-18 13:26:00,78.8,48.7,30.02,NNW,337,1.1,-999.0,35,0.00,,,0.00,,2013-10-18 20:26:00,
2013-10-18 13:31:00,79.6,50.1,30.01,NE,45,0.9,-999.0,36,0.00,,,0.00,,2013-10-18 20:31:00,
2013-10-18 13:36:00,80.3,50.0,30.01,SSE,157,3.6,-999.0,35,0.00,,,0.00,,2013-10-18 20:36:00,
2013-10-18 13:41:00,81.4,48.6,30.01,NNE,22,2.0,-999.0,32,0.00,,,0.00,,2013-10-18 20:41:00,
2013-10-18 13:46:00,81.7,50.4,30.01,South,180,0.9,-999.0,34,0.00,,,0.00,,2013-10-18 20:46:00,
2013-10-18 13:51:00,82.6,52.0,30.00,South,180,2.2,-999.0,35,0.00,,,0.00,,2013-10-18 20:51:00,
2013-10-18 13:57:00,83.7,52.2,30.00,SW,225,1.1,-999.0,34,0.00,,,0.00,,2013-10-18 20:57:00,
2013-10-18 14:02:00,83.2,50.1,30.00,SSW,202,0.4,-999.0,32,0.00,,,0.00,,2013-10-18 21:02:00,
2013-10-18 14:07:00,83.3,49.5,30.00,West,270,1.1,-999.0,31,0.00,,,0.00,,2013-10-18 21:07:00,
2013-10-18 14:12:00,83.7,50.6,30.00,SSW,202,0.4,-999.0,32,0.00,,,0.00,,2013-10-18 21:12:00,
2013-10-18 14:17:00,83.5,47.8,30.00,North,0,1.3,-999.0,29,0.00,,,0.00,,2013-10-18 21:17:00,
2013-10-18 14:22:00,82.1,46.5,29.99,North,0,1.8,-999.0,29,0.00,,,0.00,,2013-10-18 21:22:00,
2013-10-18 14:27:00,81.5,48.7,29.99,SW,225,3.8,-999.0,32,0.00,,,0.00,,2013-10-18 21:27:00,
2013-10-18 14:32:00,81.0,48.2,29.99,NNE,22,2.5,-999.0,32,0.00,,,0.00,,2013-10-18 21:32:00,
2013-10-18 14:37:00,80.5,49.4,29.99,West,270,2.2,-999.0,34,0.00,,,0.00,,2013-10-18 21:37:00,
2013-10-18 14:42:00,80.3,48.4,29.99,North,0,1.1,-999.0,33,0.00,,,0.00,,2013-10-18 21:42:00,
2013-10-18 14:47:00,80.1,49.1,29.99,WSW,247,3.1,-999.0,34,0.00,,,0.00,,2013-10-18 21:47:00,
2013-10-18 14:52:00,79.7,49.5,29.99,West,270,2.5,-999.0,35,0.00,,,0.00,,2013-10-18 21:52:00,
2013-10-18 14:57:00,79.4,48.4,29.99,West,270,3.1,-999.0,34,0.00,,,0.00,,2013-10-18 21:57:00,
2013-10-18 15:02:00,78.7,48.5,29.99,NNW,337,0.7,-999.0,35,0.00,,,0.00,,2013-10-18 22:02:00,
2013-10-18 15:07:00,77.9,48.0,29.99,WSW,247,2.7,-999.0,35,0.00,,,0.00,,2013-10-18 22:07:00,
2013-10-18 15:12:00,77.4,49.0,29.99,WNW,292,4.5,-999.0,37,0.00,,,0.00,,2013-10-18 22:12:00,
2013-10-18 15:17:00,77.2,48.9,29.99,SW,225,1.8,-999.0,37,0.00,,,0.00,,2013-10-18 22:17:00,
2013-10-18 15:22:00,77.4,49.0,29.99,South,180,3.4,-999.0,37,0.00,,,0.00,,2013-10-18 22:22:00,
2013-10-18 15:27:00,76.7,49.2,29.99,North,0,2.2,-999.0,38,0.00,,,0.00,,2013-10-18 22:27:00,
2013-10-18 15:32:00,76.5,49.0,29.99,West,270,1.1,-999.0,38,0.00,,,0.00,,2013-10-18 22:32:00,
2013-10-18 15:37:00,76.3,48.8,29.99,WSW,247,1.1,-999.0,38,0.00,,,0.00,,2013-10-18 22:37:00,
2013-10-18 15:42:00,75.6,47.3,29.99,West,270,1.8,-999.0,37,0.00,,,0.00,,2013-10-18 22:42:00,
2013-10-18 15:47:00,74.9,46.7,29.99,WSW,247,1.8,-999.0,37,0.00,,,0.00,,2013-10-18 22:47:00,
2013-10-18 15:53:00,74.9,47.5,29.99,NW,315,1.1,-999.0,38,0.00,,,0.00,,2013-10-18 22:53:00,
2013-10-18 15:58:00,74.5,46.5,29.99,NW,315,1.8,-999.0,37,0.00,,,0.00,,2013-10-18 22:58:00,
2013-10-18 16:03:00,74.0,46.7,29.99,WSW,247,2.2,-999.0,38,0.00,,,0.00,,2013-10-18 23:03:00,
2013-10-18 16:08:00,73.4,46.2,29.99,NNW,337,3.4,-999.0,38,0.00,,,0.00,,2013-10-18 23:08:00,
2013-10-18 16:13:00,72.9,45.7,30.00,North,0,1.8,-999.0,38,0.00,,,0.00,,2013-10-18 23:13:00,
2013-10-18 16:18:00,73.1,45.1,29.99,NNW,337,1.8,-999.0,37,0.00,,,0.00,,2013-10-18 23:18:00,
2013-10-18 16:23:00,73.1,45.1,29.99,West,270,1.3,-999.0,37,0.00,,,0.00,,2013-10-18 23:23:00,
2013-10-18 16:28:00,73.3,43.7,29.99,SSW,202,1.8,-999.0,35,0.00,,,0.00,,2013-10-18 23:28:00,
2013-10-18 16:33:00,73.1,42.8,29.99,NNE,22,2.5,-999.0,34,0.00,,,0.00,,2013-10-18 23:33:00,
2013-10-18 16:38:00,72.5,43.1,29.99,North,0,1.6,-999.0,35,0.00,,,0.00,,2013-10-18 23:38:00,
2013-10-18 16:43:00,72.4,43.0,29.99,SSW,202,1.8,-999.0,35,0.00,,,0.00,,2013-10-18 23:43:00,
2013-10-18 16:48:00,71.8,42.6,29.99,NNE,22,1.8,-999.0,35,0.00,,,0.00,,2013-10-18 23:48:00,
2013-10-18 16:53:00,71.6,42.4,29.99,West,270,1.1,-999.0,35,0.00,,,0.00,,2013-10-18 23:53:00,
2013-10-18 16:58:00,71.3,43.6,29.99,NW,315,2.2,-999.0,37,0.00,,,0.00,,2013-10-18 23:58:00,
2013-10-18 17:03:00,70.9,43.2,29.99,WSW,247,1.3,-999.0,37,0.00,,,0.00,,2013-10-19 00:03:00,
2013-10-18 17:08:00,70.6,42.9,29.99,North,0,1.1,-999.0,37,0.00,,,0.00,,2013-10-19 00:08:00,
2013-10-18 17:13:00,69.8,42.2,29.99,NNW,337,0.7,-999.0,37,0.00,,,0.00,,2013-10-19 00:13:00,
2013-10-18 17:19:00,69.5,42.0,29.99,WNW,292,0.4,-999.0,37,0.00,,,0.00,,2013-10-19 00:19:00,
2013-10-18 17:24:00,69.3,41.8,29.99,NW,315,2.0,-999.0,37,0.00,,,0.00,,2013-10-19 00:24:00,
2013-10-18 17:29:00,68.9,41.4,29.99,WNW,292,0.7,-999.0,37,0.00,,,0.00,,2013-10-19 00:29:00,
2013-10-18 17:34:00,69.1,42.3,29.99,West,270,1.1,-999.0,38,0.00,,,0.00,,2013-10-19 00:34:00,
2013-10-18 17:39:00,68.9,42.2,29.99,NNW,337,0.4,-999.0,38,0.00,,,0.00,,2013-10-19 00:39:00,
2013-10-18 17:44:00,68.6,41.9,30.00,North,0,1.1,-999.0,38,0.00,,,0.00,,2013-10-19 00:44:00,
2013-10-18 17:49:00,67.7,41.8,30.00,North,0,1.8,-999.0,39,0.00,,,0.00,,2013-10-19 00:49:00,
2013-10-18 17:54:00,67.0,41.1,30.00,NNW,337,1.8,-999.0,39,0.00,,,0.00,,2013-10-19 00:54:00,
2013-10-18 17:59:00,66.2,41.2,30.00,NW,315,0.7,-999.0,40,0.00,,,0.00,,2013-10-19 00:59:00,
2013-10-18 18:04:00,65.7,40.8,30.00,WNW,292,0.9,-999.0,40,0.00,,,0.00,,2013-10-19 01:04:00,
2013-10-18 18:09:00,65.3,41.6,30.00,NW,315,0.4,-999.0,42,0.00,,,0.00,,2013-10-19 01:09:00,
2013-10-18 18:14:00,64.8,41.7,30.01,WSW,247,1.3,-999.0,43,0.00,,,0.00,,2013-10-19 01:14:00,
2013-10-18 18:19:00,64.1,41.6,30.01,WNW,292,0.2,-999.0,44,0.00,,,0.00,,2013-10-19 01:19:00,
2013-10-18 18:24:00,63.4,42.1,30.01,NNW,337,2.5,-999.0,46,0.00,,,0.00,,2013-10-19 01:24:00,
2013-10-18 18:29:00,62.6,42.6,30.01,West,270,0.2,-999.0,48,0.00,,,0.00,,2013-10-19 01:29:00,
2013-10-18 18:35:00,61.9,42.5,30.01,NNE,22,0.2,-999.0,49,0.00,,,0.00,,2013-10-19 01:35:00,
2013-10-18 18:40:00,61.4,42.6,30.01,SW,225,1.1,-999.0,50,0.00,,,0.00,,2013-10-19 01:40:00,
2013-10-18 18:45:00,60.7,42.5,30.01,WSW,247,0.4,-999.0,51,0.00,,,0.00,,2013-10-19 01:45:00,
2013-10-18 18:50:00,60.1,42.9,30.01,NW,315,1.1,-999.0,53,0.00,,,0.00,,2013-10-19 01:50:00,
2013-10-18 18:55:00,59.4,42.8,30.01,WSW,247,1.3,-999.0,54,0.00,,,0.00,,2013-10-19 01:55:00,
2013-10-18 19:00:00,58.5,42.9,30.01,NW,315,0.2,-999.0,56,0.00,,,0.00,,2013-10-19 02:00:00,
2013-10-18 19:05:00,58.1,42.9,30.01,WSW,247,1.1,-999.0,57,0.00,,,0.00,,2013-10-19 02:05:00,
2013-10-18 19:10:00,57.8,42.7,30.02,WNW,292,0.0,-999.0,57,0.00,,,0.00,,2013-10-19 02:10:00,
2013-10-18 19:15:00,57.1,42.5,30.02,WSW,247,0.4,-999.0,58,0.00,,,0.00,,2013-10-19 02:15:00,
2013-10-18 19:20:00,56.5,42.4,30.01,West,270,0.9,-999.0,59,0.00,,,0.00,,2013-10-19 02:20:00,
2013-10-18 19:25:00,56.2,42.9,30.02,NNW,337,0.0,-999.0,61,0.00,,,0.00,,2013-10-19 02:25:00,
2013-10-18 19:30:00,55.6,43.2,30.02,North,0,0.7,-999.0,63,0.00,,,0.00,,2013-10-19 02:30:00,
2013-10-18 19:36:00,55.1,43.1,30.02,West,270,0.0,-999.0,64,0.00,,,0.00,,2013-10-19 02:36:00,
2013-10-18 19:41:00,54.5,43.0,30.02,WNW,292,0.9,-999.0,65,0.00,,,0.00,,2013-10-19 02:41:00,
2013-10-18 19:46:00,54.4,42.9,30.02,SSW,202,1.1,-999.0,65,0.00,,,0.00,,2013-10-19 02:46:00,
2013-10-18 19:51:00,54.0,42.8,30.02,SW,225,1.1,-999.0,66,0.00,,,0.00,,2013-10-19 02:51:00,
2013-10-18 19:56:00,53.8,43.1,30.02,NNW,337,1.3,-999.0,67,0.00,,,0.00,,2013-10-19 02:56:00,
2013-10-18 20:01:00,53.5,43.1,30.03,NW,315,0.9,-999.0,68,0.00,,,0.00,,2013-10-19 03:01:00,
2013-10-18 20:06:00,53.1,42.4,30.03,NW,315,0.0,-999.0,67,0.00,,,0.00,,2013-10-19 03:06:00,
2013-10-18 20:11:00,52.9,43.0,30.03,NNW,337,0.0,-999.0,69,0.00,,,0.00,,2013-10-19 03:11:00,
2013-10-18 20:16:00,52.6,43.1,30.03,West,270,0.0,-999.0,70,0.00,,,0.00,,2013-10-19 03:16:00,
2013-10-18 20:21:00,52.2,43.5,30.03,NW,315,1.6,-999.0,72,0.00,,,0.00,,2013-10-19 03:21:00,
2013-10-18 20:26:00,52.2,42.9,30.03,NNW,337,0.2,-999.0,70,0.00,,,0.00,,2013-10-19 03:26:00,
2013-10-18 20:31:00,51.8,43.2,30.02,NNW,337,0.0,-999.0,72,0.00,,,0.00,,2013-10-19 03:31:00,
2013-10-18 20:36:00,51.7,43.7,30.03,North,0,0.9,-999.0,74,0.00,,,0.00,,2013-10-19 03:36:00,
2013-10-18 20:42:00,51.3,43.3,30.03,NNW,337,0.2,-999.0,74,0.00,,,0.00,,2013-10-19 03:42:00,
2013-10-18 20:47:00,51.1,43.5,30.03,NW,315,1.8,-999.0,75,0.00,,,0.00,,2013-10-19 03:47:00,
2013-10-18 20:52:00,50.8,43.5,30.03,NW,315,1.3,-999.0,76,0.00,,,0.00,,2013-10-19 03:52:00,
2013-10-18 20:57:00,50.4,43.5,30.03,NNW,337,0.4,-999.0,77,0.00,,,0.00,,2013-10-19 03:57:00,
2013-10-18 21:01:00,50.2,43.6,30.03,WNW,292,2.2,-999.0,78,0.00,,,0.00,,2013-10-19 04:01:00,
2013-10-18 21:02:00,50.2,43.6,30.04,NW,315,0.0,-999.0,78,0.00,,,0.00,,2013-10-19 04:02:00,
2013-10-18 21:03:00,50.2,43.3,30.03,NNE,22,0.4,-999.0,77,0.00,,,0.00,,2013-10-19 04:03:00,
2013-10-18 21:05:00,50.0,43.4,30.03,NNW,337,1.1,-999.0,78,0.00,,,0.00,,2013-10-19 04:05:00,
2013-10-18 21:10:00,50.0,43.4,30.04,North,0,1.1,-999.0,78,0.00,,,0.00,,2013-10-19 04:10:00,
2013-10-18 21:15:00,49.9,43.2,30.04,NNW,337,0.7,-999.0,78,0.00,,,0.00,,2013-10-19 04:15:00,
2013-10-18 21:20:00,49.7,43.7,30.04,NNW,337,0.9,-999.0,80,0.00,,,0.00,,2013-10-19 04:20:00,
2013-10-18 21:25:00,49.3,42.7,30.04,North,0,0.4,-999.0,78,0.00,,,0.00,,2013-10-19 04:25:00,
2013-10-18 21:31:00,49.3,43.4,30.04,NNW,337,0.2,-999.0,80,0.00,,,0.00,,2013-10-19 04:31:00,
2013-10-18 21:36:00,49.1,43.2,30.04,NNW,337,0.4,-999.0,80,0.00,,,0.00,,2013-10-19 04:36:00,
2013-10-18 21:41:00,49.0,43.0,30.04,NNW,337,0.4,-999.0,80,0.00,,,0.00,,2013-10-19 04:41:00,
2013-10-18 21:46:00,48.8,42.8,30.04,SE,135,0.4,-999.0,80,0.00,,,0.00,,2013-10-19 04:46:00,
2013-10-18 21:51:00,48.8,43.2,30.04,NNW,337,0.7,-999.0,81,0.00,,,0.00,,2013-10-19 04:51:00,
2013-10-18 21:56:00,48.6,43.0,30.04,NNW,337,2.2,-999.0,81,0.00,,,0.00,,2013-10-19 04:56:00,
2013-10-18 22:01:00,48.4,43.1,30.04,NW,315,0.0,-999.0,82,0.00,,,0.00,,2013-10-19 05:01:00,
2013-10-18 22:06:00,48.4,43.1,30.04,North,0,1.8,-999.0,82,0.00,,,0.00,,2013-10-19 05:06:00,
2013-10-18 22:11:00,48.2,42.7,30.04,West,270,0.0,-999.0,81,0.00,,,0.00,,2013-10-19 05:11:00,
2013-10-18 22:16:00,48.2,42.7,30.04,West,270,1.1,-999.0,81,0.00,,,0.00,,2013-10-19 05:16:00,
2013-10-18 22:21:00,48.2,42.7,30.04,WNW,292,0.0,-999.0,81,0.00,,,0.00,,2013-10-19 05:21:00,
2013-10-18 22:26:00,48.2,42.9,30.04,NNW,337,0.4,-999.0,82,0.00,,,0.00,,2013-10-19 05:26:00,
2013-10-18 22:31:00,48.2,42.7,30.04,WSW,247,0.0,-999.0,81,0.00,,,0.00,,2013-10-19 05:31:00,
2013-10-18 22:36:00,48.1,43.1,30.04,NNW,337,0.4,-999.0,83,0.00,,,0.00,,2013-10-19 05:36:00,
2013-10-18 22:42:00,47.9,42.9,30.04,North,0,0.0,-999.0,83,0.00,,,0.00,,2013-10-19 05:42:00,
2013-10-18 22:47:00,47.9,43.3,30.04,NW,315,0.0,-999.0,84,0.00,,,0.00,,2013-10-19 05:47:00,
2013-10-18 22:52:00,47.7,42.8,30.04,NW,315,0.2,-999.0,83,0.00,,,0.00,,2013-10-19 05:52:00,
2013-10-18 22:57:00,47.7,42.5,30.04,SW,225,0.0,-999.0,82,0.00,,,0.00,,2013-10-19 05:57:00,
2013-10-18 23:02:00,47.7,42.5,30.04,WSW,247,0.0,-999.0,82,0.00,,,0.00,,2013-10-19 06:02:00,
2013-10-18 23:07:00,47.7,42.5,30.04,North,0,0.0,-999.0,82,0.00,,,0.00,,2013-10-19 06:07:00,
2013-10-18 23:12:00,47.5,42.3,30.04,North,0,0.0,-999.0,82,0.00,,,0.00,,2013-10-19 06:12:00,
2013-10-18 23:17:00,47.5,42.3,30.04,NNW,337,0.0,-999.0,82,0.00,,,0.00,,2013-10-19 06:17:00,
2013-10-18 23:22:00,47.3,42.5,30.04,North,0,0.0,-999.0,83,0.00,,,0.00,,2013-10-19 06:22:00,
2013-10-18 23:27:00,47.3,42.5,30.04,North,0,0.0,-999.0,83,0.00,,,0.00,,2013-10-19 06:27:00,
2013-10-18 23:32:00,47.2,42.6,30.04,North,0,0.4,-999.0,84,0.00,,,0.00,,2013-10-19 06:32:00,
2013-10-18 23:37:00,47.2,42.6,30.04,NW,315,0.0,-999.0,84,0.00,,,0.00,,2013-10-19 06:37:00,
2013-10-18 23:42:00,47.2,43.6,30.04,NNW,337,1.1,-999.0,87,0.00,,,0.00,,2013-10-19 06:42:00,
2013-10-18 23:47:00,46.8,42.8,30.04,North,0,0.4,-999.0,86,0.00,,,0.00,,2013-10-19 06:47:00,
2013-10-18 23:52:00,46.8,42.6,30.04,SW,225,0.2,-999.0,85,0.00,,,0.00,,2013-10-19 06:52:00,
2013-10-18 23:57:00,46.8,42.6,30.03,WSW,247,0.0,-999.0,85,0.00,,,0.00,,2013-10-19 06:57:00,